SCP
-0 -0 -0 -0 0 0 0 0 0 0 0 0 0 0 0 0 0 0 0 0 0 0 0 0 0 0 0 0 0 0 0 0 0 0 0 0 0 0 0 0 0 0 0 1 1
-0 -0 0 0 0 0 0 0 0 0 0 0 0 0 0 0 0 0 0 0 0 0 0 0 0 0 0 0 0 0 0 -0 0 0 0 0 0 0 0 0 0 0 0 0 0
0 0 0 0 0 0 0 0 0 0 0 0 0 0 0 0 0 0 0 0 0 0 0 0 0 0 0 0 0 0 -0 0 0 0 0 0 0 0 0 0 0 0 0 0 0
0 0 0 0 0 0 0 0 -0 -0 -0 0 0 0 0 0 0 0 0 0 0 0 0 0 0 0 0 0 0 0 0 0 0 -0 0 0 0 0 0 0 0 0 0 0 0
0 0 0 0 0 0 0 0 0 0 0 0 0 0 0 0 0 -0 -0 0 0 -0 0 0 0 0 0 0 0 0 0 0 0 0 0 0 0 0 0 0 0 0 0 0 0
0 0 0 0 0 0 0 0 0 0 0 0 0 0 0 0 -0 0 -0 -0 0 0 0 0 0 0 0 0 0 0 0 0 0 0 0 0 0 0 0 0 0 0 0 0 0
0 0 0 0 0 0 0 0 0 0 0 0 0 0 0 0 0 0 0 -0 0 0 0 0 0 0 0 0 0 0 0 0 0 0 0 0 0 0 0 0 0 0 0 0 0
0 0 0 0 0 0 0 0 -0 -0 -0 0 0 0 0 0 0 -0 0 0 -0 0 0 0 0 0 0 0 0 0 0 0 0 0 0 0 0 0 0 0 0 0 0 0 0
0 0 0 0 0 0 0 0 -0 -0 0 0 0 0 0 0 0 0 0 0 0 0 0 0 0 0 0 0 0 0 0 0 0 0 0 0 0 0 0 0 0 0 0 0 0
0 0 0 0 0 0 -0 -0 0 0 0 0 0 0 0 0 0 0 0 0 0 0 0 0 0 0 0 0 0 0 0 0 0 0 0 0 0 0 0 0 0 0 0 0 0
0 0 0 0 0 0 0 0 0 0 0 0 -0 0 -0 -0 -0 -0 0 -0 0 0 0 0 0 0 0 0 0 0 0 0 0 0 0 0 0 0 -0 0 0 0 0 0 0
0 0 0 0 -0 -0 0 0 0 0 0 0 0 0 0 0 -0 0 0 0 0 0 0 0 0 0 0 0 0 0 0 0 0 0 0 0 0 0 0 0 0 0 0 0 0
0 0 0 0 -0 0 0 0 0 0 0 0 0 0 -0 0 -0 0 0 -0 0 -0 -0 0 0 0 0 0 0 0 0 0 0 -0 0 0 0 0 0 0 0 0 0 0 0
0 0 0 -0 0 0 0 0 0 0 0 0 0 0 0 0 0 0 0 0 0 -0 -0 -0 -0 0 0 0 0 0 0 0 0 0 0 0 0 0 0 0 0 0 0 0 0
0 0 0 0 0 0 0 0 0 0 0 0 0 0 0 0 0 0 0 0 0 0 0 0 0 0 0 0 0 0 0 0 0 0 0 0 0 0 0 0 0 0 0 0 0
0 0 0 0 0 0 0 0 0 0 0 0 -0 0 -0 0 -0 0 0 0 0 0 0 0 -0 0 0 0 0 0 0 0 0 0 0 0 0 0 0 0 0 0 0 0 0
0 0 -0 0 0 0 0 0 0 0 -0 -0 -0 -0 0 0 0 0 0 0 0 0 -0 0 -0 0 0 0 0 0 0 0 0 0 0 0 0 0 0 0 0 0 0 0 0
0 0 0 0 0 0 0 0 0 -0 -0 -0 -0 -0 0 -0 -0 0 -0 0 0 0 0 -0 0 0 0 0 0 0 0 0 0 0 0 0 0 0 0 0 0 0 0 0 0
0 0 0 0 0 0 0 0 0 -0 -0 -0 0 0 0 0 -0 -0 0 0 0 0 -0 -0 0 -0 0 0 0 0 0 0 0 0 0 0 0 0 0 0 0 0 0 0 0
0 0 0 0 0 0 0 0 0 0 0 -0 0 0 0 0 0 0 0 0 -0 -0 0 0 -0 0 0 0 0 0 0 0 0 0 0 0 0 0 0 0 0 0 0 1 2
0 -0 0 -0 0 0 0 0 -0 0 0 -0 -0 0 0 0 0 0 0 0 0 -0 0 -0 -0 -0 0 0 0 0 0 0 0 0 0 0 0 0 0 1 1 1 1 1 1
0 0 0 0 0 0 0 -0 -0 -0 0 0 0 0 0 0 0 0 0 0 0 0 -0 -0 -0 -0 -0 0 0 0 0 0 0 0 0 0 1 0 1 1 1 1 1 1 2
-0 -0 0 0 0 0 0 -0 -0 -0 -0 0 -0 0 0 0 0 0 0 0 0 0 -0 -0 -0 -0 -0 0 0 0 0 0 0 0 0 0 1 0 1 0 0 0 0 1 1
-0 0 0 0 0 0 0 -0 -0 -0 -0 0 -0 -0 -0 0 0 0 0 -0 -0 0 -0 -0 -0 -0 -0 0 0 0 0 0 0 0 0 0 0 0 0 0 0 0 0 0 0
0 0 0 0 0 0 0 0 -0 -0 0 0 0 0 -0 0 0 0 0 -0 0 0 -0 0 -0 -0 0 0 0 0 0 0 0 0 0 -0 0 0 0 0 0 0 0 0 0
0 0 0 -0 0 0 -0 -0 -0 -0 -0 -0 0 -0 -0 -0 0 -0 -0 -0 0 0 -0 0 -0 0 0 0 0 0 0 0 0 0 0 0 0 0 0 0 0 0 0 0 0
0 0 0 0 0 0 -0 -0 -0 -0 0 0 0 -0 -0 -0 -0 -0 -0 -0 -0 0 -0 -0 -0 -0 -0 -0 0 -0 0 0 0 0 0 0 0 0 0 0 0 0 0 0 0
Wind_Speed_500mb
38 38 39 41 42 44 45 46 46 47 47 48 49 51 53 56 57 56 63 61 45 43 33 39 29 33 43 54 58 57 33 41 58 53 41 53 45 21 1 6 18 32 28 34 33
41 42 43 45 47 48 48 48 47 47 47 47 49 51 53 56 58 69 68 66 68 59 53 41 41 41 54 48 63 46 36 64 48 47 45 43 48 37 19 18 31 40 27 33 26
46 48 49 48 49 50 51 50 48 48 48 50 51 54 56 54 53 19 4 8 20 33 59 54 49 49 62 66 64 63 58 45 56 64 60 43 45 40 25 30 41 48 38 30 30
46 47 49 52 53 50 46 46 46 45 41 43 48 51 47 29 17 14 19 49 54 27 34 48 57 63 53 59 74 56 68 67 61 57 58 40 41 30 32 35 37 47 51 46 39
48 52 57 60 61 57 56 53 49 42 43 49 50 45 34 33 80 63 72 48 30 24 38 48 60 66 62 58 63 66 62 74 74 71 64 54 39 32 30 41 35 23 54 46 46
56 61 66 70 70 64 62 60 55 45 52 56 42 34 26 44 35 24 36 44 55 42 42 43 52 60 60 64 60 67 64 64 65 69 65 49 29 37 45 38 43 34 25 35 31
61 66 71 73 71 66 62 63 54 50 53 41 39 24 38 79 39 43 39 48 46 50 56 56 55 59 58 55 79 71 57 56 57 62 50 55 40 48 54 48 39 50 38 27 28
65 69 73 75 72 67 65 63 53 39 33 33 31 17 29 36 29 36 28 46 52 47 54 57 59 67 69 56 70 58 60 49 58 58 56 38 53 43 52 48 49 45 40 41 44
68 73 76 78 72 68 61 58 40 24 41 34 24 26 33 12 23 32 21 29 30 47 51 51 57 69 60 48 41 56 48 70 55 56 48 52 41 40 60 52 46 47 47 54 62
72 77 79 80 67 56 52 43 41 30 14 20 29 23 54 22 33 28 26 22 19 26 50 58 57 43 42 40 42 66 67 61 56 54 51 56 50 41 51 65 55 54 57 55 55
74 79 82 75 52 39 51 50 58 22 8 46 60 54 72 66 52 39 34 41 15 24 37 59 34 43 61 60 54 53 50 56 51 53 45 50 48 45 37 51 50 56 54 56 50
75 79 84 69 42 31 32 24 40 30 39 54 50 53 62 54 54 45 31 22 16 27 40 39 44 55 55 60 61 60 58 51 49 51 54 48 49 45 45 36 50 53 57 56 53
76 80 80 60 32 27 31 34 37 21 17 31 19 27 32 22 36 47 24 32 22 25 34 40 56 58 60 61 61 60 57 49 48 53 48 40 37 44 46 50 43 51 58 61 56
80 84 73 47 16 24 27 41 28 22 8 16 13 13 24 19 21 28 19 15 37 41 40 28 49 58 58 57 61 57 57 53 51 35 35 46 30 38 42 43 35 42 51 54 56
82 85 54 28 38 19 43 38 23 10 11 14 23 29 46 53 35 27 25 18 27 39 37 21 38 55 61 60 57 54 58 56 57 34 42 42 28 35 42 41 44 34 41 56 54
83 75 30 21 28 33 48 36 21 8 12 23 52 44 47 47 31 12 16 21 1 17 40 49 55 39 51 59 61 49 55 61 50 35 30 37 33 37 44 55 43 39 48 48 59
85 52 16 22 21 50 36 19 10 18 38 37 60 62 41 33 24 11 9 3 8 6 24 31 48 45 40 38 61 59 43 32 29 26 20 45 40 27 45 43 45 40 48 49 54
84 27 23 21 44 36 23 11 16 42 37 49 57 53 5 43 35 18 22 26 27 21 6 20 32 52 34 38 35 62 46 15 44 24 36 41 41 41 24 37 59 59 53 49 52
66 22 21 24 31 27 31 9 18 28 42 48 45 34 38 45 30 29 26 3 4 21 10 18 29 40 43 36 47 59 46 47 30 36 29 36 31 25 9 35 44 48 52 53 49
52 28 9 35 33 31 14 5 17 30 44 35 14 17 37 38 34 35 16 12 20 20 13 13 15 38 41 31 41 46 46 41 28 41 31 42 35 25 28 23 39 39 40 48 56
33 18 26 31 23 35 18 19 30 42 50 22 18 30 29 24 20 16 9 7 12 16 20 3 13 31 33 23 36 30 28 33 35 27 24 20 33 36 39 35 36 35 43 43 53
29 15 30 32 19 29 21 28 27 40 51 24 19 20 7 14 12 13 21 5 6 16 15 9 9 20 45 31 34 35 36 47 22 41 8 9 16 44 50 44 38 40 46 51 55
35 38 31 27 13 19 22 18 35 39 41 14 19 14 8 9 13 24 23 26 13 26 6 11 5 10 23 36 37 20 45 39 45 24 26 11 2 17 44 36 46 53 55 52 52
25 14 25 24 25 26 25 28 36 40 35 30 32 23 35 17 17 20 31 21 48 19 24 3 7 21 20 27 20 41 38 51 45 21 4 8 15 25 34 38 38 57 61 64 60
28 13 24 13 24 35 29 35 42 38 19 38 10 27 43 18 16 11 35 40 24 3 11 17 16 27 27 32 36 36 44 38 46 41 13 24 30 30 31 35 46 58 65 69 64
22 17 25 48 39 33 30 39 47 48 35 19 23 49 43 36 22 47 44 41 8 4 8 8 9 21 20 15 18 32 37 35 48 31 21 42 29 32 43 40 47 59 63 59 61
22 22 21 32 29 26 29 42 47 44 22 51 41 40 44 43 60 69 60 57 31 10 4 5 9 5 12 26 23 9 39 34 29 31 27 36 29 38 34 32 45 56 59 61 63
Wind_Direction_500mb
345 343 340 337 335 331 327 324 322 319 316 313 309 307 306 304 300 295 276 269 264 279 257 243 247 235 224 233 223 224 239 241 241 239 243 260 266 201 30 233 247 257 239 117 125
345 342 340 338 334 331 328 324 320 317 313 310 307 306 305 305 305 291 292 278 267 249 252 242 236 225 221 224 229 223 227 237 241 249 253 249 261 242 175 212 241 248 228 130 142
344 341 340 336 333 330 326 320 316 312 310 309 308 309 310 317 314 277 247 319 315 261 237 238 239 238 232 222 220 229 234 232 242 253 255 255 243 246 189 209 220 227 208 164 160
342 340 337 334 332 330 326 322 316 309 307 304 306 305 302 305 268 263 291 307 295 305 222 228 231 238 240 228 223 227 234 237 248 237 250 263 274 247 208 225 213 225 204 177 179
343 340 338 335 336 333 332 330 326 320 313 311 310 301 302 267 253 277 282 291 292 276 224 225 228 231 234 233 228 231 231 231 237 255 268 274 246 250 215 220 227 226 211 211 177
344 342 340 337 337 333 330 325 321 316 311 311 304 293 271 258 289 307 286 256 270 258 240 228 231 227 243 236 230 232 236 237 228 233 242 253 233 245 252 236 209 228 222 197 181
344 342 339 337 335 328 324 319 315 308 306 302 299 283 258 253 277 291 294 267 259 247 247 242 239 245 234 247 238 240 244 231 234 233 243 231 238 227 230 231 208 216 206 217 216
343 340 338 336 332 325 322 317 315 307 296 299 292 256 252 291 278 292 285 287 258 255 253 247 244 246 247 241 245 233 239 238 222 227 230 223 239 222 223 226 224 209 199 210 223
342 340 337 336 332 328 327 328 324 306 287 284 272 218 268 296 257 302 276 297 273 248 257 254 236 245 241 239 232 237 222 228 223 215 217 216 231 232 210 221 216 197 207 221 224
341 340 336 336 333 337 340 346 346 310 312 246 249 244 247 257 317 306 289 253 267 279 249 249 244 227 237 222 217 215 216 220 223 216 207 223 232 231 231 206 211 210 209 225 215
340 338 335 336 333 343 345 351 353 322 302 291 292 259 277 284 290 298 297 266 247 259 261 224 243 224 218 229 229 218 221 222 222 221 223 214 225 216 227 214 200 207 215 213 218
339 337 336 335 330 337 336 329 342 307 311 297 277 265 265 270 271 286 307 259 264 258 256 226 226 247 217 228 227 234 221 219 219 217 215 217 216 219 224 237 204 197 203 208 210
337 337 337 332 326 346 327 340 331 340 286 307 302 278 304 286 293 289 289 309 208 219 252 240 221 228 237 215 223 228 233 226 218 220 202 210 208 222 223 218 217 201 197 202 202
338 338 337 330 339 325 332 332 332 343 299 280 14 321 305 291 293 294 218 201 279 232 233 237 254 221 235 232 217 220 226 235 241 204 212 189 209 206 222 207 199 191 193 188 193
338 339 337 334 332 337 330 329 326 331 343 46 354 314 297 273 265 235 232 192 235 272 242 219 252 234 214 227 233 221 213 227 237 240 221 191 215 206 213 207 186 185 194 187 184
338 339 333 353 308 326 321 321 305 282 346 1 340 330 330 322 329 25 184 196 4 285 279 260 240 262 210 215 235 234 212 217 230 241 214 191 195 232 189 210 186 184 186 189 179
339 340 311 346 317 328 322 333 305 7 353 343 335 331 331 326 353 209 241 162 202 216 252 250 240 234 250 264 211 230 233 197 205 223 185 212 192 231 204 195 188 184 179 193 175
342 350 357 313 324 325 322 310 309 359 347 333 332 319 336 10 340 318 273 281 216 221 288 228 216 221 213 239 228 214 222 210 193 171 206 219 222 223 267 209 183 174 179 178 165
346 354 311 335 332 323 307 338 4 349 329 331 322 336 342 344 345 337 335 304 252 200 235 222 251 193 200 216 214 211 215 201 217 191 205 186 194 86 70 160 167 154 176 166 164
341 330 321 341 324 307 327 23 319 354 334 333 310 332 327 338 338 335 327 37 348 7 258 325 270 193 191 204 250 234 194 200 231 188 213 191 151 147 135 103 137 132 112 107 106
345 298 3 351 346 347 37 350 336 339 331 330 295 305 312 321 313 308 334 307 15 315 311 324 283 190 180 190 219 208 228 204 220 225 209 181 170 154 141 126 100 97 104 117 120
331 340 354 357 24 8 13 339 326 343 335 330 292 321 297 305 291 296 287 227 192 344 315 221 307 256 186 199 219 202 221 203 202 224 312 355 150 152 137 139 137 132 118 110 114
326 322 356 4 20 352 342 321 340 353 336 335 316 320 305 275 305 284 322 328 96 347 259 354 259 235 235 190 207 188 221 197 229 233 215 148 120 311 109 121 136 142 131 128 128
319 355 352 322 5 339 331 336 340 352 328 323 310 310 312 302 279 285 292 311 321 301 278 237 264 262 209 198 192 194 255 204 213 230 252 16 154 113 124 138 148 132 140 144 138
6 11 6 311 331 309 328 350 345 337 327 322 288 310 323 307 293 265 315 309 323 50 308 187 238 233 240 223 210 182 222 215 207 219 171 154 142 139 139 138 131 125 119 120 119
3 355 327 299 307 332 12 346 340 340 336 333 314 323 316 310 310 309 311 305 290 259 4 323 283 218 203 138 243 194 218 236 234 200 202 157 140 136 134 130 123 122 124 121 121
354 344 332 297 339 344 348 346 338 339 310 327 331 320 318 320 311 298 285 275 251 261 191 284 301 250 180 148 194 248 224 215 203 108 166 159 138 135 135 135 129 127 127 127 126
Wind_Speed_850mb
38 38 39 41 42 44 45 46 46 47 47 48 49 51 53 56 57 56 63 61 45 43 33 39 29 33 43 54 58 57 33 41 58 53 41 53 45 21 1 6 18 32 28 34 33
41 42 43 45 47 48 48 48 47 47 47 47 49 51 53 56 58 69 68 66 68 59 53 41 41 41 54 48 63 46 36 64 48 47 45 43 48 37 19 18 31 40 27 33 26
46 48 49 48 49 50 51 50 48 48 48 50 51 54 56 54 53 19 4 8 20 33 59 54 49 49 62 66 64 63 58 45 56 64 60 43 45 40 25 30 41 48 38 30 30
46 47 49 52 53 50 46 46 46 45 41 43 48 51 47 29 17 14 19 49 54 27 34 48 57 63 53 59 74 56 68 67 61 57 58 40 41 30 32 35 37 47 51 46 39
48 52 57 60 61 57 56 53 49 42 43 49 50 45 34 33 80 63 72 48 30 24 38 48 60 66 62 58 63 66 62 74 74 71 64 54 39 32 30 41 35 23 54 46 46
56 61 66 70 70 64 62 60 55 45 52 56 42 34 26 44 35 24 36 44 55 42 42 43 52 60 60 64 60 67 64 64 65 69 65 49 29 37 45 38 43 34 25 35 31
61 66 71 73 71 66 62 63 54 50 53 41 39 24 38 79 39 43 39 48 46 50 56 56 55 59 58 55 79 71 57 56 57 62 50 55 40 48 54 48 39 50 38 27 28
65 69 73 75 72 67 65 63 53 39 33 33 31 17 29 36 29 36 28 46 52 47 54 57 59 67 69 56 70 58 60 49 58 58 56 38 53 43 52 48 49 45 40 41 44
68 73 76 78 72 68 61 58 40 24 41 34 24 26 33 12 23 32 21 29 30 47 51 51 57 69 60 48 41 56 48 70 55 56 48 52 41 40 60 52 46 47 47 54 62
72 77 79 80 67 56 52 43 41 30 14 20 29 23 54 22 33 28 26 22 19 26 50 58 57 43 42 40 42 66 67 61 56 54 51 56 50 41 51 65 55 54 57 55 55
74 79 82 75 52 39 51 50 58 22 8 46 60 54 72 66 52 39 34 41 15 24 37 59 34 43 61 60 54 53 50 56 51 53 45 50 48 45 37 51 50 56 54 56 50
75 79 84 69 42 31 32 24 40 30 39 54 50 53 62 54 54 45 31 22 16 27 40 39 44 55 55 60 61 60 58 51 49 51 54 48 49 45 45 36 50 53 57 56 53
76 80 80 60 32 27 31 34 37 21 17 31 19 27 32 22 36 47 24 32 22 25 34 40 56 58 60 61 61 60 57 49 48 53 48 40 37 44 46 50 43 51 58 61 56
80 84 73 47 16 24 27 41 28 22 8 16 13 13 24 19 21 28 19 15 37 41 40 28 49 58 58 57 61 57 57 53 51 35 35 46 30 38 42 43 35 42 51 54 56
82 85 54 28 38 19 43 38 23 10 11 14 23 29 46 53 35 27 25 18 27 39 37 21 38 55 61 60 57 54 58 56 57 34 42 42 28 35 42 41 44 34 41 56 54
83 75 30 21 28 33 48 36 21 8 12 23 52 44 47 47 31 12 16 21 1 17 40 49 55 39 51 59 61 49 55 61 50 35 30 37 33 37 44 55 43 39 48 48 59
85 52 16 22 21 50 36 19 10 18 38 37 60 62 41 33 24 11 9 3 8 6 24 31 48 45 40 38 61 59 43 32 29 26 20 45 40 27 45 43 45 40 48 49 54
84 27 23 21 44 36 23 11 16 42 37 49 57 53 5 43 35 18 22 26 27 21 6 20 32 52 34 38 35 62 46 15 44 24 36 41 41 41 24 37 59 59 53 49 52
66 22 21 24 31 27 31 9 18 28 42 48 45 34 38 45 30 29 26 3 4 21 10 18 29 40 43 36 47 59 46 47 30 36 29 36 31 25 9 35 44 48 52 53 49
52 28 9 35 33 31 14 5 17 30 44 35 14 17 37 38 34 35 16 12 20 20 13 13 15 38 41 31 41 46 46 41 28 41 31 42 35 25 28 23 39 39 40 48 56
33 18 26 31 23 35 18 19 30 42 50 22 18 30 29 24 20 16 9 7 12 16 20 3 13 31 33 23 36 30 28 33 35 27 24 20 33 36 39 35 36 35 43 43 53
29 15 30 32 19 29 21 28 27 40 51 24 19 20 7 14 12 13 21 5 6 16 15 9 9 20 45 31 34 35 36 47 22 41 8 9 16 44 50 44 38 40 46 51 55
35 38 31 27 13 19 22 18 35 39 41 14 19 14 8 9 13 24 23 26 13 26 6 11 5 10 23 36 37 20 45 39 45 24 26 11 2 17 44 36 46 53 55 52 52
25 14 25 24 25 26 25 28 36 40 35 30 32 23 35 17 17 20 31 21 48 19 24 3 7 21 20 27 20 41 38 51 45 21 4 8 15 25 34 38 38 57 61 64 60
28 13 24 13 24 35 29 35 42 38 19 38 10 27 43 18 16 11 35 40 24 3 11 17 16 27 27 32 36 36 44 38 46 41 13 24 30 30 31 35 46 58 65 69 64
22 17 25 48 39 33 30 39 47 48 35 19 23 49 43 36 22 47 44 41 8 4 8 8 9 21 20 15 18 32 37 35 48 31 21 42 29 32 43 40 47 59 63 59 61
22 22 21 32 29 26 29 42 47 44 22 51 41 40 44 43 60 69 60 57 31 10 4 5 9 5 12 26 23 9 39 34 29 31 27 36 29 38 34 32 45 56 59 61 63
Wind_Direction_850mb
345 343 340 337 335 331 327 324 322 319 316 313 309 307 306 304 300 295 276 269 264 279 257 243 247 235 224 233 223 224 239 241 241 239 243 260 266 201 30 233 247 257 239 117 125
345 342 340 338 334 331 328 324 320 317 313 310 307 306 305 305 305 291 292 278 267 249 252 242 236 225 221 224 229 223 227 237 241 249 253 249 261 242 175 212 241 248 228 130 142
344 341 340 336 333 330 326 320 316 312 310 309 308 309 310 317 314 277 247 319 315 261 237 238 239 238 232 222 220 229 234 232 242 253 255 255 243 246 189 209 220 227 208 164 160
342 340 337 334 332 330 326 322 316 309 307 304 306 305 302 305 268 263 291 307 295 305 222 228 231 238 240 228 223 227 234 237 248 237 250 263 274 247 208 225 213 225 204 177 179
343 340 338 335 336 333 332 330 326 320 313 311 310 301 302 267 253 277 282 291 292 276 224 225 228 231 234 233 228 231 231 231 237 255 268 274 246 250 215 220 227 226 211 211 177
344 342 340 337 337 333 330 325 321 316 311 311 304 293 271 258 289 307 286 256 270 258 240 228 231 227 243 236 230 232 236 237 228 233 242 253 233 245 252 236 209 228 222 197 181
344 342 339 337 335 328 324 319 315 308 306 302 299 283 258 253 277 291 294 267 259 247 247 242 239 245 234 247 238 240 244 231 234 233 243 231 238 227 230 231 208 216 206 217 216
343 340 338 336 332 325 322 317 315 307 296 299 292 256 252 291 278 292 285 287 258 255 253 247 244 246 247 241 245 233 239 238 222 227 230 223 239 222 223 226 224 209 199 210 223
342 340 337 336 332 328 327 328 324 306 287 284 272 218 268 296 257 302 276 297 273 248 257 254 236 245 241 239 232 237 222 228 223 215 217 216 231 232 210 221 216 197 207 221 224
341 340 336 336 333 337 340 346 346 310 312 246 249 244 247 257 317 306 289 253 267 279 249 249 244 227 237 222 217 215 216 220 223 216 207 223 232 231 231 206 211 210 209 225 215
340 338 335 336 333 343 345 351 353 322 302 291 292 259 277 284 290 298 297 266 247 259 261 224 243 224 218 229 229 218 221 222 222 221 223 214 225 216 227 214 200 207 215 213 218
339 337 336 335 330 337 336 329 342 307 311 297 277 265 265 270 271 286 307 259 264 258 256 226 226 247 217 228 227 234 221 219 219 217 215 217 216 219 224 237 204 197 203 208 210
337 337 337 332 326 346 327 340 331 340 286 307 302 278 304 286 293 289 289 309 208 219 252 240 221 228 237 215 223 228 233 226 218 220 202 210 208 222 223 218 217 201 197 202 202
338 338 337 330 339 325 332 332 332 343 299 280 14 321 305 291 293 294 218 201 279 232 233 237 254 221 235 232 217 220 226 235 241 204 212 189 209 206 222 207 199 191 193 188 193
338 339 337 334 332 337 330 329 326 331 343 46 354 314 297 273 265 235 232 192 235 272 242 219 252 234 214 227 233 221 213 227 237 240 221 191 215 206 213 207 186 185 194 187 184
338 339 333 353 308 326 321 321 305 282 346 1 340 330 330 322 329 25 184 196 4 285 279 260 240 262 210 215 235 234 212 217 230 241 214 191 195 232 189 210 186 184 186 189 179
339 340 311 346 317 328 322 333 305 7 353 343 335 331 331 326 353 209 241 162 202 216 252 250 240 234 250 264 211 230 233 197 205 223 185 212 192 231 204 195 188 184 179 193 175
342 350 357 313 324 325 322 310 309 359 347 333 332 319 336 10 340 318 273 281 216 221 288 228 216 221 213 239 228 214 222 210 193 171 206 219 222 223 267 209 183 174 179 178 165
346 354 311 335 332 323 307 338 4 349 329 331 322 336 342 344 345 337 335 304 252 200 235 222 251 193 200 216 214 211 215 201 217 191 205 186 194 86 70 160 167 154 176 166 164
341 330 321 341 324 307 327 23 319 354 334 333 310 332 327 338 338 335 327 37 348 7 258 325 270 193 191 204 250 234 194 200 231 188 213 191 151 147 135 103 137 132 112 107 106
345 298 3 351 346 347 37 350 336 339 331 330 295 305 312 321 313 308 334 307 15 315 311 324 283 190 180 190 219 208 228 204 220 225 209 181 170 154 141 126 100 97 104 117 120
331 340 354 357 24 8 13 339 326 343 335 330 292 321 297 305 291 296 287 227 192 344 315 221 307 256 186 199 219 202 221 203 202 224 312 355 150 152 137 139 137 132 118 110 114
326 322 356 4 20 352 342 321 340 353 336 335 316 320 305 275 305 284 322 328 96 347 259 354 259 235 235 190 207 188 221 197 229 233 215 148 120 311 109 121 136 142 131 128 128
319 355 352 322 5 339 331 336 340 352 328 323 310 310 312 302 279 285 292 311 321 301 278 237 264 262 209 198 192 194 255 204 213 230 252 16 154 113 124 138 148 132 140 144 138
6 11 6 311 331 309 328 350 345 337 327 322 288 310 323 307 293 265 315 309 323 50 308 187 238 233 240 223 210 182 222 215 207 219 171 154 142 139 139 138 131 125 119 120 119
3 355 327 299 307 332 12 346 340 340 336 333 314 323 316 310 310 309 311 305 290 259 4 323 283 218 203 138 243 194 218 236 234 200 202 157 140 136 134 130 123 122 124 121 121
354 344 332 297 339 344 348 346 338 339 310 327 331 320 318 320 311 298 285 275 251 261 191 284 301 250 180 148 194 248 224 215 203 108 166 159 138 135 135 135 129 127 127 127 126